Flag for Denmark Weather past 2 weeks in Vejle, Denmark

Now
63 °F

Broken clouds.


Feels Like: 63 °F
Forecast: 53 / 59 °F
Wind: 9 mph from West

Location: Billund Lufthavn

Current Time: Jul 28, 2015 at 12:28:10 PM

Latest Report: Jul 28, 2015 at 11:50 AM


Visibility: N/A

Pressure: 29.39 "Hg

Humidity: 83%

Dew point: 57 °F

Location of VejleLocation

Historic Weather in Vejle — Graph

°F

Vejle temperature yesterday

Maximum temperature yesterday: 61 °F (at 11:20 AM)
Minimum temperature yesterday: 52 °F (at 12:20 AM)
Average temperature yesterday: 57 °F

Past Weeks' High & Low Weather Summary

 TemperatureHumidityPressure
High72 °F (Jul 22, 1:20 PM)100% (Jul 14, 1:20 AM)30.12 "Hg (Jul 14, 1:20 AM)
Low39 °F (Jul 17, 5:20 AM)40% (Jul 17, 11:50 AM)29.36 "Hg (Jul 28, 2:20 AM)
Average59 °F77%29.83 "Hg
* Reported Jul 13 11:20 AM — Jul 28 11:20 AM, Vejle, Weather by CustomWeather, © 2015

Note: Actual official high and low records may vary slightly from our data, if they occured in-between our weather recording intervals... More about our weather records

Advertising

Vejle weather history for previous 24 hours

 ConditionsComfort  
Time TempWeatherWind HumidityBarometerVisibility
11:20 AM
Tue, Jul 28
63 °FPartly sunny.7 mph83%29.39 "HgN/A
10:50 AM61 °FBroken clouds.9 mph88%29.36 "HgN/A
10:20 AM61 °FBroken clouds.7 mph88%29.36 "HgN/A
9:50 AM59 °FPartly sunny.7 mph94%29.36 "HgN/A
9:20 AM59 °FPartly sunny.6 mph94%29.36 "HgN/A
8:50 AM59 °FLow clouds.6 mph94%29.36 "HgN/A
8:20 AM57 °FPartly sunny.6 mph100%29.36 "Hg6 mi
7:50 AM57 °FPartly sunny.6 mph100%29.36 "Hg3 mi
7:20 AM57 °FPartly sunny.3 mph100%29.36 "Hg3 mi
6:50 AM57 °FPartly sunny.3 mph100%29.36 "Hg3 mi
6:20 AM57 °FPartly sunny.3 mph100%29.36 "Hg4 mi
5:55 AM57 °FRain showers. Fog.6 mph94%29.36 "Hg1 mi
5:20 AM57 °FPassing clouds.5 mph94%29.36 "Hg4 mi
4:52 AM57 °FPassing clouds.5 mph94%29.36 "Hg5 mi
4:20 AM57 °FSprinkles. Passing clouds.6 mph94%29.36 "Hg0 mi
3:50 AM57 °FSprinkles. Passing clouds.6 mph94%29.36 "Hg5 mi
3:20 AM57 °FSprinkles. Partly cloudy.7 mph94%29.36 "HgN/A
2:50 AM57 °FSprinkles. Partly cloudy.6 mph100%29.36 "Hg4 mi
2:20 AM57 °FPassing clouds.3 mph94%29.36 "HgN/A
1:50 AM57 °FPassing clouds.7 mph100%29.39 "HgN/A
1:20 AM57 °FSprinkles. Passing clouds.5 mph100%29.39 "HgN/A
12:50 AM57 °FSprinkles. Passing clouds.5 mph100%29.39 "HgN/A
11:20 PM
Mon, Jul 27
59 °FPartly cloudy.7 mph94%29.39 "HgN/A
10:50 PM59 °FRain showers. Fog.7 mph94%29.39 "Hg2 mi
10:20 PM57 °FBroken clouds.7 mph100%29.39 "Hg3 mi
9:50 PM57 °FSprinkles. Broken clouds.7 mph100%29.42 "Hg4 mi
9:20 PM57 °FSprinkles. Broken clouds.7 mph100%29.42 "HgN/A
8:50 PM57 °FRain showers. Fog.10 mph100%29.42 "Hg1 mi
8:20 PM59 °FSprinkles. Broken clouds.9 mph94%29.42 "Hg4 mi
7:50 PM59 °FSprinkles. Broken clouds.8 mph94%29.42 "Hg4 mi
7:20 PM59 °FDrizzle. Partly sunny.8 mph88%29.42 "Hg3 mi
6:50 PM59 °FLow clouds.8 mph88%29.42 "HgN/A
6:20 PM59 °FLow clouds.8 mph88%29.45 "HgN/A
5:50 PM59 °FLow clouds.9 mph88%29.45 "HgN/A
5:20 PM59 °FLow clouds.10 mph88%29.45 "HgN/A
4:50 PM59 °FPartly sunny.13 mph88%29.45 "HgN/A
4:20 PM59 °FLow clouds.12 mph88%29.45 "HgN/A
3:50 PM59 °FPartly sunny.12 mph88%29.45 "HgN/A
3:20 PM59 °FOvercast.12 mph82%29.45 "HgN/A
2:50 PM57 °FOvercast.10 mph88%29.45 "HgN/A
2:20 PM57 °FPartly sunny.12 mph88%29.47 "HgN/A
1:50 PM57 °FOvercast.13 mph88%29.47 "Hg4 mi
1:20 PM59 °FPartly sunny.16 mph77%29.47 "HgN/A
12:20 PM59 °FBroken clouds.14 mph77%29.47 "HgN/A
Weather by CustomWeather, © 2015

See weather overviewHow to use our weather pages